Regional Weather Roundup
Issued by NWS

Home | Current Version | Previous Version | Text Only | Print | Product List | Glossary Off
Versions: 1 2 3 4 5 6 7 8 9 10 11 12 13 14 15 16 17 18 19 20 21 22 23 24 25 26 27

000
ASUS45 KSLC 190810
RWRUT

UTAH REGIONAL WEATHER ROUNDUP
NATIONAL WEATHER SERVICE SALT LAKE CITY UT
200 AM MDT SAT APR 19 2014

UTZ001>011-023>025-190900-

NORTHERN UTAH

CITY           SKY/WX    TMP DP  RH WIND       PRES   REMARKS
HILL AFB       CLOUDY    51  36  55 E13       29.98S
LOGAN          MOCLDY    43  38  82 E3        30.02R
OGDEN          MOCLDY    50  40  68 NW7       29.97S
PROVO AIRPORT  MOCLDY    48  43  81 S8        29.99S
SALT LAKE CITY PTCLDY    48  47  96 CALM      29.97S
VERNAL         CLOUDY    61  26  26 S12       29.97S
WENDOVER       CLOUDY    55  34  44 NE9       29.99S
HEBER CITY     MOCLDY    37  30  75 CALM      30.01S
WEST JORDAN    CLEAR     50  39  66 N5        29.98S

$$

UTZ012>022-026-027-190900-

SOUTHERN UTAH

CITY           SKY/WX    TMP DP  RH WIND       PRES   REMARKS
BRYCE CANYON   CLOUDY    36  27  69 SW3       30.12S
CEDAR CITY     CLOUDY    50  26  39 S6        30.02S
MILFORD        MOCLDY    50  25  37 SW10      29.99S
MOAB/CYNLANDS  MOCLDY    62  33  33 S15       29.98S
PRICE          CLOUDY    59  24  26 SE3       30.01S
ST GEORGE      PTSUNNY   64  30  27 E12       29.94S
KANAB          MOCLDY    55  34  44 S5        30.07S

$$

REGIONAL REPORTS     COLORADO/ARIZONA

CITY           SKY/WX    TMP DP  RH WIND       PRES   REMARKS
CRAIG, CO      CLOUDY    41  34  76 E3        30.04R
GRAND JUNCTION CLOUDY    58  33  39 N10       30.01S
RIFLE          MOCLDY    52  31  44 SE8       30.02S
MONTROSE       CLOUDY    55  32  41 E5        30.06S
CORTEZ         CLOUDY    49  43  80 W3        30.13S
PAGE, AZ       CLOUDY    59  39  47 S12G23    30.01R
GRAND CANYON   LGT RAIN  44  39  82 SE5       30.13S
KINGMAN        CLOUDY    56  46  69 SE13      29.99F
FLAGSTAFF      PTCLDY    37  35  92 CALM      30.13S

$$

REGIONAL REPORTS    NEVADA/IDAHO/WYOMING

CITY           SKY/WX    TMP DP  RH WIND       PRES   REMARKS
LAS VEGAS, NV  CLOUDY    69  39  33 S15       29.85R
ELY            CLOUDY    48  24  39 SW8       30.03R
ELKO           PTCLDY    38  26  62 SE3       29.98F
POCATELLO, ID  PTCLDY    38  16  40 E5        30.02R WCI  34
BURLEY         PTCLDY    37  30  75 SW7       30.00S WCI  32
EVANSTON, WY   MOCLDY    39  31  72 N7        30.07S WCI  34
ROCK SPRINGS   CLOUDY    44  30  57 SW12      30.05R

$$



USA.gov is the U.S. government's official web portal to all federal, state and local government web resources and services.